EW1185 Weather Reports


time (UTC)temp
C
wind
direction
speed
KPH
gust
KPH
rain 1hr
cm
rain 24hr
cm
rain mn
cm
humidity
%
barometer
mb
20260508213518 24 135 0.0 0.0 0.00 0.00 0.00 23 1013.8
20260508212518 24 135 0.0 0.0 0.00 0.00 0.00 23 1013.8
20260508211518 23 135 0.0 0.0 0.00 0.00 0.00 23 1013.9
20260508211018 24 135 0.0 0.0 0.00 0.00 0.00 23 1013.9
20260508210517 23 135 0.0 0.0 0.00 0.00 0.00 23 1013.9
20260508210018 23 135 0.0 0.0 0.00 0.00 0.00 25 1013.9
20260508205518 23 135 0.0 0.0 0.00 0.00 0.00 25 1014.1
20260508205018 23 135 0.0 0.0 0.00 0.00 0.00 25 1014.1
20260508204517 23 135 0.0 0.0 0.00 0.00 0.00 25 1014.1
20260508204017 23 135 0.0 0.0 0.00 0.00 0.00 25 1014.1
20260508203518 23 135 0.0 0.0 0.00 0.00 0.00 25 1014.2
20260508203018 23 135 0.0 0.0 0.00 0.00 0.00 25 1014.2
20260508202018 23 135 0.0 0.0 0.00 0.00 0.00 25 1014.2
20260508201518 23 135 0.0 0.0 0.00 0.00 0.00 25 1014.1
20260508201018 23 135 0.0 0.0 0.00 0.00 0.00 25 1014.1
20260508200517 23 135 0.0 0.0 0.00 0.00 0.00 25 1014.1
20260508200017 23 135 0.0 0.0 0.00 0.00 0.00 30 1014.1
20260508195517 23 135 0.0 0.0 0.00 0.00 0.00 30 1014.4
20260508195017 23 135 0.0 0.0 0.00 0.00 0.00 30 1014.4
20260508194518 23 135 0.0 0.0 0.00 0.00 0.00 30 1014.4
20260508194018 23 135 0.0 0.0 0.00 0.00 0.00 30 1014.4
20260508193518 22 135 0.0 0.0 0.00 0.00 0.00 30 1014.2
20260508193018 22 135 0.0 0.0 0.00 0.00 0.00 30 1014.2
20260508192518 22 135 0.0 0.0 0.00 0.00 0.00 30 1014.2
20260508192018 22 135 0.0 0.0 0.00 0.00 0.00 30 1014.2
20260508191517 22 135 0.0 0.0 0.00 0.00 0.00 30 1014.1
20260508191018 22 135 0.0 0.0 0.00 0.00 0.00 30 1014.1
20260508190518 22 135 0.0 0.0 0.00 0.00 0.00 30 1014.1
20260508190018 22 135 0.0 0.0 0.00 0.00 0.00 28 1014.1
20260508185518 21 135 0.0 0.0 0.00 0.00 0.00 28 1014.4
20260508185018 22 135 0.0 0.0 0.00 0.00 0.00 28 1014.4
20260508184517 21 135 0.0 0.0 0.00 0.00 0.00 28 1014.4
20260508184017 21 135 0.0 0.0 0.00 0.00 0.00 28 1014.4
20260508183518 21 135 0.0 0.0 0.00 0.00 0.00 28 1014.1
20260508183018 21 135 0.0 0.0 0.00 0.00 0.00 28 1014.1
20260508182517 21 135 0.0 0.0 0.00 0.00 0.00 28 1014.1
20260508181517 21 135 0.0 0.0 0.00 0.00 0.00 28 1014.1
20260508181018 21 135 0.0 0.0 0.00 0.00 0.00 28 1014.1
20260508180018 21 135 0.0 0.0 0.00 0.00 0.00 40 1014.1
20260508175518 21 135 0.0 0.0 0.00 0.00 0.00 40 1013.9
20260508174517 21 135 0.0 0.0 0.00 0.00 0.00 40 1013.9
20260508174017 21 135 0.0 0.0 0.00 0.00 0.00 40 1013.9
20260508173518 21 135 0.0 0.0 0.00 0.00 0.00 40 1013.9
20260508173018 21 135 0.0 0.0 0.00 0.00 0.00 40 1013.9
20260508172517 21 135 0.0 0.0 0.00 0.00 0.00 40 1013.9
20260508172017 21 135 0.0 0.0 0.00 0.00 0.00 40 1013.9
20260508171517 21 135 0.0 0.0 0.00 0.00 0.00 40 1013.8
20260508171017 21 135 0.0 0.0 0.00 0.00 0.00 40 1013.8
20260508170518 21 135 0.0 0.0 0.00 0.00 0.00 40 1013.8
20260508170018 20 135 0.0 0.0 0.00 0.00 0.00 43 1013.8
20260508165518 20 135 0.0 0.0 0.00 0.00 0.00 43 1013.5
20260508164517 20 135 0.0 0.0 0.00 0.00 0.00 43 1013.5
20260508164017 20 135 0.0 0.0 0.00 0.00 0.00 43 1013.5
20260508162517 20 135 0.0 0.0 0.00 0.00 0.00 43 1013.4
20260508162018 20 135 0.0 0.0 0.00 0.00 0.00 43 1013.4
20260508161517 19 135 0.0 0.0 0.00 0.00 0.00 43 1013.3
20260508161017 19 135 0.0 0.0 0.00 0.00 0.00 43 1013.3
20260508160517 19 135 0.0 0.0 0.00 0.00 0.00 43 1013.3
20260508155517 19 135 0.0 0.0 0.00 0.00 0.00 44 1013.1
20260508155017 19 135 0.0 0.0 0.00 0.00 0.00 44 1013.1
20260508154017 19 135 0.0 0.0 0.00 0.00 0.00 44 1013.1
20260508153517 18 135 0.0 0.0 0.00 0.00 0.00 44 1012.9
20260508153017 18 135 0.0 0.0 0.00 0.00 0.00 44 1012.9
20260508152517 18 135 0.0 0.0 0.00 0.00 0.00 44 1012.9
20260508152018 18 135 0.0 0.0 0.00 0.00 0.00 44 1012.9
20260508151517 18 135 0.0 0.0 0.00 0.00 0.00 44 1012.5
20260508150517 17 135 0.0 0.0 0.00 0.00 0.00 44 1012.5
20260508150017 17 135 0.0 0.0 0.00 0.00 0.00 44 1012.5
20260508145517 17 135 0.0 0.0 0.00 0.00 0.00 44 1012.2
20260508145017 16 135 0.0 0.0 0.00 0.00 0.00 44 1012.2
20260508144517 16 135 0.0 0.0 0.00 0.00 0.00 44 1012.2
20260508144017 16 135 0.0 0.0 0.00 0.00 0.00 44 1012.2
20260508143517 16 135 0.0 0.0 0.00 0.00 0.00 44 1011.9
20260508142517 17 135 0.0 0.0 0.00 0.00 0.00 44 1011.9
20260508142017 16 135 0.0 0.0 0.00 0.00 0.00 44 1011.9
20260508141517 16 135 0.0 0.0 0.00 0.00 0.00 44 1011.9
20260508141017 15 135 0.0 0.0 0.00 0.00 0.00 44 1011.9
20260508140516 15 135 0.0 0.0 0.00 0.00 0.00 44 1011.9
20260508140017 14 135 0.0 0.0 0.00 0.00 0.00 45 1011.9
20260508135517 13 135 0.0 0.0 0.00 0.00 0.00 45 1011.9
20260508135017 12 135 0.0 0.0 0.00 0.00 0.00 45 1011.9
20260508134017 12 135 0.0 0.0 0.00 0.00 0.00 45 1011.9
20260508133517 11 135 0.0 0.0 0.00 0.00 0.00 45 1011.6
20260508132517 10 135 0.0 0.0 0.00 0.00 0.00 45 1011.6
20260508131517 10 135 0.0 0.0 0.00 0.00 0.00 45 1011.4
20260508131017 10 135 0.0 0.0 0.00 0.00 0.00 45 1011.4
20260508130516 10 135 0.0 0.0 0.00 0.00 0.00 45 1011.4
20260508130017 10 135 0.0 0.0 0.00 0.00 0.00 47 1011.4
20260508125517 10 135 0.0 0.0 0.00 0.00 0.00 47 1011.2
20260508125017 10 135 0.0 0.0 0.00 0.00 0.00 47 1011.2
20260508124517 10 135 0.0 0.0 0.00 0.00 0.00 47 1011.2
20260508124017 10 135 0.0 0.0 0.00 0.00 0.00 47 1011.2
20260508123516 10 135 0.0 0.0 0.00 0.00 0.00 47 1011.1
20260508123017 10 135 0.0 0.0 0.00 0.00 0.00 47 1011.1
20260508122516 10 135 0.0 0.0 0.00 0.00 0.00 47 1011.1
20260508122017 10 135 0.0 0.0 0.00 0.00 0.00 47 1011.1
20260508121517 10 135 0.0 0.0 0.00 0.00 0.00 47 1010.8
20260508121018 10 135 0.0 0.0 0.00 0.00 0.00 47 1010.8
20260508120017 10 135 0.0 0.0 0.00 0.00 0.00 43 1010.8
20260508115517 10 135 0.0 0.0 0.00 0.00 0.00 43 1010.9
20260508115016 10 135 0.0 0.0 0.00 0.00 0.00 43 1010.9
20260508114517 11 135 0.0 0.0 0.00 0.00 0.00 43 1010.9
20260508114017 11 135 0.0 0.0 0.00 0.00 0.00 43 1010.9
20260508113517 11 135 0.0 0.0 0.00 0.00 0.00 43 1010.8
20260508113017 11 135 0.0 0.0 0.00 0.00 0.00 43 1010.8
20260508112017 11 135 0.0 0.0 0.00 0.00 0.00 43 1010.8
20260508110517 11 135 0.0 0.0 0.00 0.00 0.00 43 1010.9
20260508110016 11 135 0.0 0.0 0.00 0.00 0.00 41 1010.9
20260508105516 11 135 0.0 0.0 0.00 0.00 0.00 41 1010.9
20260508104516 11 135 0.0 0.0 0.00 0.00 0.00 41 1010.9
20260508104017 11 135 0.0 0.0 0.00 0.00 0.00 41 1010.9
20260508103517 11 135 0.0 0.0 0.00 0.00 0.00 41 1011.0
20260508103017 11 135 0.0 0.0 0.00 0.00 0.00 41 1011.0
20260508102516 11 135 0.0 0.0 0.00 0.00 0.00 41 1011.0
20260508101517 11 135 0.0 0.0 0.00 0.00 0.00 41 1011.1
20260508101017 11 135 0.0 0.0 0.00 0.00 0.00 41 1011.1
20260508100517 11 135 0.0 0.0 0.00 0.00 0.00 41 1011.1
20260508100017 11 135 0.0 0.0 0.00 0.00 0.00 41 1011.1
20260508095517 11 135 0.0 0.0 0.00 0.00 0.00 41 1011.1
20260508095016 11 135 0.0 0.0 0.00 0.00 0.00 41 1011.1
20260508094017 11 135 0.0 0.0 0.00 0.00 0.00 41 1011.1
20260508093517 11 135 0.0 0.0 0.00 0.00 0.00 41 1011.1
20260508093017 11 135 0.0 0.0 0.00 0.00 0.00 41 1011.1
20260508092516 11 135 0.0 0.0 0.00 0.00 0.00 41 1011.1
20260508091517 11 135 0.0 0.0 0.00 0.00 0.00 41 1011.1
20260508091017 11 135 0.0 0.0 0.00 0.00 0.00 41 1011.1
20260508090016 11 135 0.0 0.0 0.00 0.00 0.00 41 1011.1
20260508085516 11 135 0.0 0.0 0.00 0.00 0.00 41 1011.1
20260508085016 11 135 0.0 0.0 0.00 0.00 0.00 41 1011.1
20260508084517 11 135 0.0 0.0 0.00 0.00 0.00 41 1011.1
20260508083517 12 135 0.0 0.0 0.00 0.00 0.00 41 1011.1
20260508082017 13 135 0.0 0.0 0.00 0.00 0.00 41 1011.1
20260508081017 12 135 0.0 0.0 0.00 0.00 0.00 41 1011.3
20260508080016 12 135 0.0 0.0 0.00 0.00 0.00 40 1011.3
20260508075516 12 135 0.0 0.0 0.00 0.00 0.00 40 1011.4
20260508075016 12 135 0.0 0.0 0.00 0.00 0.00 40 1011.4
20260508074517 12 135 0.0 0.0 0.00 0.00 0.00 40 1011.4
20260508074017 12 135 0.0 0.0 0.00 0.00 0.00 40 1011.4
20260508073517 13 135 0.0 0.0 0.00 0.00 0.00 40 1011.4
20260508073017 13 135 0.0 0.0 0.00 0.00 0.00 40 1011.4
20260508072516 13 135 0.0 0.0 0.00 0.00 0.00 40 1011.4
20260508072016 13 135 0.0 0.0 0.00 0.00 0.00 40 1011.4
20260508071517 13 135 0.0 0.0 0.00 0.00 0.00 40 1011.3
20260508071017 13 135 0.0 0.0 0.00 0.00 0.00 40 1011.3
20260508070516 13 135 0.0 0.0 0.00 0.00 0.00 40 1011.3
20260508070016 13 135 0.0 0.0 0.00 0.00 0.00 36 1011.3
20260508065516 13 135 0.0 0.0 0.00 0.00 0.00 36 1011.2
20260508063516 13 135 0.0 0.0 0.00 0.00 0.00 36 1011.1
20260508063017 13 135 0.0 0.0 0.00 0.00 0.00 36 1011.1
20260508062516 13 135 0.0 0.0 0.00 0.00 0.00 36 1011.1
20260508062016 13 135 0.0 0.0 0.00 0.00 0.00 36 1011.1
20260508061517 14 135 0.0 0.0 0.00 0.00 0.00 36 1011.3
20260508061017 14 135 0.0 0.0 0.00 0.00 0.00 36 1011.3
20260508060516 14 135 0.0 0.0 0.00 0.00 0.00 36 1011.3
20260508060016 14 135 0.0 0.0 0.00 0.00 0.00 36 1011.3
20260508055516 15 135 0.0 0.0 0.00 0.00 0.00 36 1011.1
20260508055016 15 135 0.0 0.0 0.00 0.00 0.00 36 1011.1
20260508054516 15 135 0.0 0.0 0.00 0.00 0.00 36 1011.1
20260508054017 15 135 0.0 0.0 0.00 0.00 0.00 36 1011.1
20260508053517 15 135 0.0 0.0 0.00 0.00 0.00 36 1010.9
20260508053016 16 135 0.0 0.0 0.00 0.00 0.00 36 1010.9
20260508052516 16 135 0.0 0.0 0.00 0.00 0.00 36 1010.9
20260508052017 16 135 0.0 0.0 0.00 0.00 0.00 36 1010.9
20260508051016 17 135 0.0 0.0 0.00 0.00 0.00 36 1010.9
20260508050516 17 135 0.0 0.0 0.00 0.00 0.00 36 1010.9
20260508045516 18 135 0.0 0.0 0.00 0.00 0.00 30 1011.1
20260508045016 18 135 0.0 0.0 0.00 0.00 0.00 30 1011.1
20260508044516 18 135 0.0 0.0 0.00 0.00 0.00 30 1011.1
20260508044017 18 135 0.0 0.0 0.00 0.00 0.00 30 1011.1
20260508043517 18 135 0.0 0.0 0.00 0.00 0.00 30 1011.3
20260508043016 18 135 0.0 0.0 0.00 0.00 0.00 30 1011.3
20260508042516 18 135 0.0 0.0 0.00 0.00 0.00 30 1011.3
20260508041516 18 135 0.0 0.0 0.00 0.00 0.00 30 1011.2
20260508041016 18 135 0.0 0.0 0.00 0.00 0.00 30 1011.2
20260508040516 18 135 0.0 0.0 0.00 0.00 0.00 30 1011.2
20260508035516 18 135 0.0 0.0 0.00 0.00 0.00 27 1011.1
20260508035016 18 135 0.0 0.0 0.00 0.00 0.00 27 1011.1
20260508034516 18 135 0.0 0.0 0.00 0.00 0.00 27 1011.1
20260508032516 18 135 0.0 0.0 0.00 0.00 0.00 27 1011.0
20260508032016 18 135 0.0 0.0 0.00 0.00 0.00 27 1011.0
20260508031016 18 135 0.0 0.0 0.00 0.00 0.00 27 1011.0
20260508030517 18 135 0.0 0.0 0.00 0.00 0.00 27 1011.0
20260508030016 18 135 0.0 0.0 0.00 0.00 0.00 26 1011.0
20260508025516 19 135 0.0 0.0 0.00 0.00 0.00 26 1010.7
20260508025016 19 135 0.0 0.0 0.00 0.00 0.00 26 1010.7
20260508024516 19 135 0.0 0.0 0.00 0.00 0.00 26 1010.7
20260508024016 20 135 0.0 0.0 0.00 0.00 0.00 26 1010.7
20260508023516 20 135 0.0 0.0 0.00 0.00 0.00 26 1010.7
20260508023016 20 135 0.0 0.0 0.00 0.00 0.00 26 1010.7
20260508022516 21 135 0.0 0.0 0.00 0.00 0.00 26 1010.7
20260508022016 21 135 0.0 0.0 0.00 0.00 0.00 26 1010.7
20260508021515 21 135 0.0 0.0 0.00 0.00 0.00 26 1010.5
20260508021016 21 135 0.0 0.0 0.00 0.00 0.00 26 1010.5
20260508020516 21 135 0.0 0.0 0.00 0.00 0.00 26 1010.5
20260508015515 22 135 0.0 0.0 0.00 0.00 0.00 21 1010.5
20260508015016 22 135 0.0 0.0 0.00 0.00 0.00 21 1010.5
20260508014516 22 135 0.0 0.0 0.00 0.00 0.00 21 1010.5
20260508014015 22 135 0.0 0.0 0.00 0.00 0.00 21 1010.5
20260508013516 22 135 0.0 0.0 0.00 0.00 0.00 21 1010.4
20260508012515 22 135 0.0 0.0 0.00 0.00 0.00 21 1010.4
20260508012015 23 135 0.0 0.0 0.00 0.00 0.00 21 1010.4
20260508011515 23 135 0.0 0.0 0.00 0.00 0.00 21 1010.4
20260508011016 23 135 0.0 0.0 0.00 0.00 0.00 21 1010.4
20260508010516 23 135 0.0 0.0 0.00 0.00 0.00 21 1010.4
20260508005515 23 135 0.0 0.0 0.00 0.00 0.00 23 1010.4
20260508004516 23 135 0.0 0.0 0.00 0.00 0.00 23 1010.4
20260508003515 23 135 0.0 0.0 0.00 0.00 0.00 23 1010.6
20260508003015 23 135 0.0 0.0 0.00 0.00 0.00 23 1010.6
20260508002515 23 135 0.0 0.0 0.00 0.00 0.00 23 1010.6
20260508002016 23 135 0.0 0.0 0.00 0.00 0.00 23 1010.6
20260508001515 23 135 0.0 0.0 0.00 0.00 0.00 23 1010.6
20260508001016 23 135 0.0 0.0 0.00 0.00 0.00 23 1010.6
20260508000516 24 135 0.0 0.0 0.00 0.00 0.00 23 1010.6
20260508000016 23 135 0.0 0.0 0.00 0.00 0.00 24 1010.6
20260507235516 23 135 0.0 0.0 0.00 0.00 0.00 24 1011.1
20260507234515 23 135 0.0 0.0 0.00 0.00 0.00 24 1011.1
20260507234016 23 135 0.0 0.0 0.00 0.00 0.00 24 1011.1
20260507233516 23 135 0.0 0.0 0.00 0.00 0.00 24 1010.9
20260507233016 23 135 0.0 0.0 0.00 0.00 0.00 24 1010.9
20260507232516 23 135 0.0 0.0 0.00 0.00 0.00 24 1010.9
20260507231515 23 135 0.0 0.0 0.00 0.00 0.00 24 1011.4
20260507231015 23 135 0.0 0.0 0.00 0.00 0.00 24 1011.4
20260507230516 23 135 0.0 0.0 0.00 0.00 0.00 24 1011.4
20260507230015 23 135 0.0 0.0 0.00 0.00 0.00 24 1011.4
20260507224516 23 135 0.0 0.0 0.00 0.00 0.00 24 1011.8
20260507223515 22 135 0.0 0.0 0.00 0.00 0.00 24 1012.3
20260507223015 22 135 0.0 0.0 0.00 0.00 0.00 24 1012.3
20260507222515 22 135 0.0 0.0 0.00 0.00 0.00 24 1012.3
20260507221515 22 135 0.0 0.0 0.00 0.00 0.00 24 1012.5
20260507221016 22 135 0.0 0.0 0.00 0.00 0.00 24 1012.5
20260507220515 22 135 0.0 0.0 0.00 0.00 0.00 24 1012.5
20260507215016 22 135 0.0 0.0 0.00 0.00 0.00 21 1012.9
20260507214515 23 135 0.0 0.0 0.00 0.00 0.00 21 1012.9
20260507214016 23 135 0.0 0.0 0.00 0.00 0.00 21 1012.9